Location: Newark
(49.8348°N, 24.0280°E)
Time: 22:43:31
(UTC+00:00)

S-56A Canister/Altair - Pass Details

Date: 02 February 2020
Orbit: 633 x 2499 km, 38.9° (Epoch: 19 February)

Event Time Altitude Azimuth Distance (km) Brightness Sun altitude
Rises 16:19:10 0° 233° (SW) 5,215 13.2 -9.9°
Reaches altitude 10° 16:23:29 10° 225° (SW) 3,899 12.1 -10.6°
Maximum altitude 16:31:29 31° 169° (S) 2,065 9.7 -11.8°
Enters shadow 16:37:02 11° 111° (ESE) 2,702 9.8 -12.7°
Drops below altitude 10° 16:37:13 10° 110° (ESE) 2,750 - -12.7°
Sets 16:39:44 0° 99° (E) 3,496 - -13.1°
